Location: Nerbis
(43.7549°N, 0.7362°W)
Time: 23:04:26
(UTC+00:00)

Daily predictions for brighter satellites

Satellite Brightness Start Highest point End
(mag) Time Altitude Azimuth Time Altitude Azimuth Time Altitude Azimuth
ATLAS CENTAUR R/B 3.0 16:46:39 10° NNW 16:50:33 42° NE 16:57:40 10° ESE
SL-8 R/B 3.8 16:49:25 10° WNW 16:54:09 65° NNE 16:58:55 10° E
Cosmos 1607 4.4 16:48:34 10° SW 16:54:50 65° NW 17:01:16 10° NNE
USA 305 3.3 16:51:31 10° NW 16:55:05 36° NNE 16:58:39 10° E
CZ-4B R/B 4.5 16:54:21 10° ESE 16:58:18 24° ENE 17:02:11 10° NNE
Cosmos 1943 3.6 16:56:44 10° NNW 17:02:04 41° ENE 17:07:22 10° SE
ATLAS 2AS CENTAUR R/B 3.8 16:57:34 10° NNW 17:03:02 24° NNE 17:08:18 10° E
Helios 1A 4.3 17:00:32 10° NE 17:03:43 21° E 17:06:53 10° SE
SMAP 3.2 17:00:16 10° SSE 17:04:45 50° ENE 17:09:16 10° N
Helios 1B rocket 2.4 17:01:19 10° SSE 17:05:14 84° WSW 17:09:13 10° NNW
Cosmos 1500 2.9 17:02:18 10° N 17:05:51 75° E 17:09:21 10° SSE
CZ-4B R/B 4.0 17:04:51 10° SE 17:08:12 39° ENE 17:11:36 10° N
Cosmos 2297 Rocket 4.3 17:07:13 10° W 17:11:14 19° NW 17:15:15 10° N
Cosmos 407 Rocket 4.1 17:08:56 10° N 17:13:34 33° ENE 17:18:09 10° SE
Cosmos 405 Rocket 4.1 17:10:39 10° SSW 17:14:13 40° WNW 17:17:52 10° N
Cosmos 2219 4.3 17:12:11 10° SW 17:17:27 41° WNW 17:22:47 10° NNE
ISS -3.5 17:15:33 10° WNW 17:18:54 71° SW 17:22:14 10° SE
Cosmos 2251 Rocket 3.9 17:16:22 10° N 17:21:26 41° ENE 17:26:29 10° SE
Radarsat 4.5 17:21:23 10° SSE 17:26:32 74° ENE 17:31:44 10° N
Lacrosse 5 2.6 17:23:33 10° SSW 17:28:11 37° SE 17:31:42 16° ENE
Cosmos-2242 3.0 17:25:28 10° S 17:29:45 64° E 17:34:03 10° NNE
Cosmos 2151 4.4 17:26:00 10° NNW 17:30:02 42° W 17:34:03 10° SSW
Cosmos 2058 Rocket 4.5 17:28:39 10° SSW 17:32:50 40° WNW 17:37:00 10° N
COSMO-SKYMED 1 3.4 17:29:30 10° NE 17:33:15 29° E 17:37:01 10° SSE
Lacrosse 4 Rocket 1.4 17:29:28 10° NNW 17:33:46 61° ENE 17:37:56 10° SE
APEX 2.3 17:35:06 10° SSW 17:38:08 80° ESE 17:39:58 19° NNE
Meteor 2-2 Rocket 4.4 17:33:48 10° S 17:39:23 57° E 17:45:07 10° NNE
Cosmos 2344 3.5 17:32:43 10° SSW 17:40:26 68° ESE 17:47:04 13° NE
Cosmos 2221 3.7 17:37:16 10° SE 17:40:27 21° E 17:41:02 20° ENE
Cosmos 1023 Rocket 4.4 17:37:23 10° NNW 17:42:34 82° ENE 17:47:38 10° SSE
Cosmos 1812 2.5 17:39:12 10° S 17:42:53 88° E 17:46:35 10° N
USA 234 3.3 17:37:35 15° NE 17:43:13 71° SE 17:49:44 10° SW
Meteor 1-25 Rocket 4.2 17:37:47 10° N 17:43:25 63° ENE 17:48:56 10° SSE
Cosmos 1818 3.6 17:39:01 10° SSW 17:44:23 69° ESE 17:48:45 16° NE
Cosmos 2026 Rocket 4.2 17:40:33 10° SSE 17:46:31 49° E 17:52:36 10° NNE
USA 276 2.8 17:45:19 10° W 17:47:29 28° NNW 17:48:03 25° N
AQUARIUS 4.3 17:44:40 10° S 17:49:07 75° WSW 17:53:36 10° NNW
Cosmos 2195 Rocket 4.5 17:47:20 10° S 17:53:35 67° E 17:59:49 10° NNE
H-2A R/B 4.0 17:55:43 10° S 17:56:47 11° S 17:58:06 10° SSE
[s.n.58448] 4.2 17:54:53 10° W 17:57:09 27° SSW 17:58:25 18° SSE
Cosmos 1844 Rocket 2.8 17:53:11 10° S 17:58:32 51° ESE 18:02:02 21° NE
Cosmos 2263 Rocket 3.5 17:53:36 10° WSW 17:58:40 36° NW 18:03:48 10° N
USA 307 3.0 17:55:04 10° WNW 17:58:54 61° SW 18:02:21 11° SE
[s.n.58449] 4.3 17:57:25 10° W 17:59:36 25° SSW 18:00:40 19° SSE
[s.n.58459] 4.3 17:58:45 10° W 18:01:00 26° SSW 18:02:07 19° SSE
[s.n.58458] 4.4 17:59:27 10° W 18:01:43 26° SSW 18:02:49 19° SSE
[s.n.58456] 4.4 18:00:18 10° W 18:02:32 25° SSW 18:03:37 19° SSE
[s.n.58447] 4.4 18:00:32 10° W 18:02:44 25° SSW 18:03:44 19° SSE
[s.n.58457] 4.4 18:01:04 10° W 18:03:18 25° SSW 18:04:21 19° SSE
Cosmos 1092 Rocket 3.9 17:57:54 10° S 18:03:59 69° E 18:10:06 10° NNE
Nadezhda 4 Rocket 4.4 17:58:01 10° SSW 18:04:05 65° W 18:10:11 10° N
[s.n.58455] 4.4 18:01:51 10° W 18:04:05 25° SSW 18:05:06 19° SSE
YAOGAN 1 4.4 18:07:03 16° NNE 18:07:03 16° NNE 18:08:04 10° N
[s.n.58454] 4.4 18:02:38 10° W 18:04:51 25° SSW 18:05:51 19° SSE
Cosmos 1766 Rocket 4.0 18:00:54 10° N 18:04:56 36° ENE 18:08:55 10° SE
Cosmos 1933 3.2 18:01:27 10° S 18:05:23 66° E 18:07:55 21° NNE
[s.n.58453] 4.4 18:03:25 10° W 18:05:39 24° SSW 18:06:36 20° SSE
Cosmos 1420 Rocket 4.2 18:00:46 10° S 18:05:47 49° ESE 18:08:27 26° NE
[s.n.58452] 4.4 18:04:09 10° W 18:06:22 24° SSW 18:07:18 20° S
Cosmos 2227 4.5 18:01:25 10° SSW 18:07:09 70° WNW 18:12:32 12° NNE
[s.n.58451] 4.4 18:04:57 10° W 18:07:09 24° SSW 18:08:03 20° S
[s.n.58450] 4.4 18:05:43 10° W 18:07:55 24° SSW 18:08:47 20° S
ADEOS 3.6 18:04:27 10° SE 18:09:30 53° ENE 18:14:35 10° N
Cosmos 1140 Rocket 4.0 18:05:03 10° NNW 18:10:08 61° WSW 18:15:11 10° S
[s.n.58446] 4.5 18:08:03 10° W 18:10:14 23° SSW 18:11:01 20° S
Cosmos 1624 Rocket 4.1 18:08:33 10° S 18:13:36 52° ESE 18:15:39 32° NE
Meteor 1-5 Rocket 4.3 18:08:31 10° N 18:14:09 57° ENE 18:19:55 10° SSE
BREEZE-M DEB (TANK) 3.2 18:13:59 10° WNW 18:15:04 21° NNW 18:15:04 21° NNW
CBERS 1 LM4 rocket 4.3 18:14:31 10° SSE 18:19:21 82° WSW 18:24:06 10° NNW
SKYMED 2 3.5 18:18:07 17° NNE 18:21:27 85° WNW 18:25:48 10° SSW
Cosmos 1603 3.9 18:16:42 10° NNW 18:22:22 71° WSW 18:27:57 10° SSE
Cosmos 192 4.3 18:21:09 10° SSW 18:26:02 87° WNW 18:28:35 29° NNE
SL-08 R/B 3.1 18:25:44 32° NNE 18:27:53 77° ESE 18:32:32 10° S
USA 305 3.8 18:26:21 10° WNW 18:29:59 41° SW 18:31:44 24° S
RESURS DK-1 4.0 18:30:14 10° NNW 18:31:56 22° N 18:31:56 22° N
Cosmos 1782 3.8 18:31:50 10° SSW 18:35:34 44° WNW 18:38:16 17° N
Cosmos 676 Rocket 3.9 18:34:27 10° NNW 18:39:44 63° ENE 18:40:05 61° E
EO 1 Delta rocket 4.4 18:41:15 10° SSE 18:48:12 90° WSW 18:53:40 10° N
CZ-4B DEB 4.0 18:53:04 48° SSE 18:54:40 77° ENE 19:00:14 10° NNW
ATLAS 2AS CENTAUR R/B 2.5 18:48:13 10° NW 18:55:07 77° NE 18:56:38 56° ESE
ATLAS CENTAUR R/B 4.3 18:50:20 10° WNW 18:55:27 44° SW 19:04:52 10° SSE
Cosmos 1241 Rocket 4.4 18:52:33 10° SW 18:58:58 82° WNW 19:00:35 53° NNE
Cosmos 2056 Rocket 4.2 19:02:15 10° SW 19:07:30 54° WNW 19:09:06 40° NNW
Cosmos 1954 Rocket 4.4 19:05:11 10° NNW 19:10:22 60° WSW 19:11:51 43° SSW
Cosmos 1844 4.4 19:04:55 10° SW 19:10:33 52° WNW 19:12:19 38° N
Lacrosse 5 2.6 19:06:13 10° WSW 19:10:56 46° NW 19:10:56 46° NW
COSMOS 2455 2.9 19:05:07 10° SSW 19:10:14 64° S 19:10:14 64° S
Cosmos 2221 4.1 19:13:49 10° SW 19:17:38 32° WNW 19:17:46 32° WNW
USA 234 3.9 19:24:55 42° N 19:26:01 45° NNW 19:32:09 10° W
Cosmos 1844 Rocket 4.4 19:38:04 10° WSW 19:42:42 26° NW 19:43:44 25° NW
